Regional Weather Roundup
Issued by NWS

Home | Current Version | Previous Version | Graphics & Text | Print | Product List | Glossary On
Versions: 1 2 3 4 5 6 7 8 9 10 11 12 13 14 15 16 17 18 19 20 21 22 23 24 25 26 27
000
ASUS45 KTFX 161510
RWRMT
MONTANA REGIONAL WEATHER ROUNDUP
NATIONAL WEATHER SERVICE GREAT FALLS MT
900 AM MDT MON OCT 16 2017

NOTE: "FAIR" INDICATES FEW OR NO CLOUDS BELOW 12000 FEET WITH NO
SIGNIFICANT WEATHER AND/OR OBSTRUCTIONS TO VISIBILITY.

MTZ001>007-043-161600-
WEST OF THE DIVIDE

CITY           SKY/WX    TMP DP  RH WIND       PRES   REMARKS
KALISPELL      FOG       27  27 100 CALM      30.25R VSB 1/4
MISSOULA       CLEAR     30  28  92 CALM      30.32R
BUTTE          SUNNY     28  22  78 SE5       30.32R
MULLAN PASS    CLEAR     38  18  44 VRB7      30.28R
ANACONDA         N/A     41  23  48 S3        30.29R
HAMILTON         N/A     39  25  56 S12       30.28F WCI  32
$$

MTZ008-052>055-161600-
SOUTHWEST MONTANA

CITY           SKY/WX    TMP DP  RH WIND       PRES   REMARKS
BOZEMAN        CLOUDY    36  30  79 SE3       30.28R
DILLON         CLOUDY    39  19  44 S6        30.32R
W YELLOWSTONE  CLOUDY    23  19  86 CALM      30.43R
ENNIS          CLOUDY    36  21  55 SE9       30.39R WCI  29
$$

MTZ009-010-012-014-046-048-049-054-161600-
EAST SLOPES AND CENTRAL MONTANA

CITY           SKY/WX    TMP DP  RH WIND       PRES   REMARKS
CUT BANK       CLEAR     50  24  36 SW17      30.07R
GREAT FALLS    CLOUDY    55  20  25 SW17G28   30.12R
MALMSTROM AFB  CLOUDY    56  21  26 SW20G31   30.13R
HELENA         MOSUNNY   45  30  55 E7        30.22R
CHOTEAU          N/A     48  19  32 NW7       30.13R
$$

MTZ011-013-016-021-045-047-050-051-161600-
NORTH CENTRAL MONTANA

CITY           SKY/WX    TMP DP  RH WIND       PRES   REMARKS
HAVRE          SUNNY     49  32  52 SW22      30.02R
LEWISTOWN      SUNNY     51  28  41 SW8       30.12R
N BAR RANCH      N/A     57  19  23 NW24G33   30.12R
$$

MTZ017>020-022>027-061-062-161600-
NORTHEAST MONTANA

CITY           SKY/WX    TMP DP  RH WIND       PRES   REMARKS
GLASGOW        MOSUNNY   46  36  68 W3        29.99R
JORDAN           N/A     48  34  58 W6        30.03R
SIDNEY         CLOUDY    44  34  67 S6        29.98R
WOLF POINT     MOSUNNY   45  35  68 VRB5      29.99R
MALTA            N/A     45  37  76 W7        30.00R
PLENTYWOOD       N/A     48  34  57 W9        29.91R
$$

MTZ028>42-056>058-161600-
SOUTHCENTRAL AND SOUTHEAST MONTANA

CITY           SKY/WX    TMP DP  RH WIND       PRES   REMARKS
BAKER          CLOUDY    49  31  49 W10       30.07R
BILLINGS       MOSUNNY   51  28  41 SW17      30.14R
LIVINGSTON     SUNNY     52  21  29 SW22G33   30.23R
MILES CITY     MOSUNNY   42  32  67 S7        30.07R
BIG TIMBER     SUNNY     52  19  28 W30G39    30.17F
FORSYTH          N/A     52  28  40 SW7       30.08R
LAUREL           N/A     50  28  43 S6        30.17R
$$

REGIONAL REPORTS...DAKOTAS

CITY           SKY/WX    TMP DP  RH WIND       PRES   REMARKS
WILLISTON      CLOUDY    45  34  65 SW12      29.94S
MINOT          SUNNY     53  33  46 SW15      29.88F
DICKINSON      CLOUDY    54  31  41 W18G25    29.99R
BEACH            N/A     48  28  46 SW14      30.05R
CROSBY           N/A     50  32  50 W18G26    29.89S
TIOGA            N/A     46  32  57 W14G21    29.92R
WATFORD CITY     N/A     48  34  57 SW7       29.95
BISMARCK       SUNNY     50  33  52 W3        30.00S
GRAND FORKS    MOSUNNY   47  35  63 S16       29.95F
FARGO          SUNNY     45  35  68 S14G24    30.05F
BUFFALO SD       N/A     51  30  44 W6        30.01R
RAPID CITY     CLOUDY    50  32  50 CALM      30.13R
$$

REGIONAL REPORTS...WYOMING/IDAHO/WASHINGTON

CITY           SKY/WX    TMP DP  RH WIND       PRES   REMARKS
GILLETTE       SUNNY     53  27  36 CALM      30.16R
SHERIDAN       SUNNY     43  31  62 N3        30.15R
BUFFALO WY     SUNNY     58  20  22 W5        30.18R
CODY           CLOUDY    55   9  16 W9G18     30.25R
YELLOWSTONE LA   N/A     27  25  92 CALM      30.46R
IDAHO FALLS    CLOUDY    29  26  89 CALM      30.43R
SALMON         SUNNY     29  25  85 CALM      30.44R
BOISE          CLEAR     39  27  62 SE6       30.38R
SPOKANE        PTCLDY    38  33  82 CALM      30.26R
$$

REGIONAL REPORTS...ALBERTA

CITY           SKY/WX    TMP DP  RH WIND       PRES   REMARKS
EDMONTON       MOCLDY    45  34  65 SW7       29.84R
CALGARY        PTCLDY    46  27  46 VRB5      29.90R
LETHBRIDGE     MOCLDY    55  30  38 W32G43    29.93R
MEDICINE HAT   PTSUNNY   45  32  61 S9        29.94R
$$

REGIONAL REPORTS...SASKATCHEWAN

CITY           SKY/WX    TMP DP  RH WIND       PRES   REMARKS
SWIFT CURRENT  SUNNY     45  32  61 W14G20    29.92R
REGINA         MOSUNNY   43  34  70 W8        29.85R
SASKATOON      MOSUNNY   39  32  75 SW7       29.84R
$$




USA.gov is the U.S. government's official web portal to all federal, state and local government web resources and services.